Theta_e
337 336 336 336 335 336 336 336 335 335 335 334 334 335 335 336 336 337 338 337 337 338 337 337 338 339 339 339 340 340 340 340 339 340 340 338 335 335 338 339 338 337 338 338 339 339 338 337 336 336 337 337 337 338 337 337 337 338 339 340 339 339 341
333 332 333 334 334 336 336 336 336 336 335 335 334 334 335 335 335 336 337 337 337 337 337 338 338 338 338 339 340 340 340 341 340 340 340 337 334 336 338 337 336 336 337 337 338 338 338 337 337 337 338 338 338 338 338 338 337 337 338 338 338 338 339
332 332 333 334 334 335 335 336 337 336 336 335 335 335 334 334 334 335 336 336 336 337 338 338 338 338 338 338 339 339 339 340 340 339 339 337 336 338 338 337 336 336 335 336 337 337 338 337 336 336 337 337 337 338 339 338 338 336 337 337 338 337 338
334 335 336 336 335 335 336 336 337 337 337 336 335 335 334 334 334 335 336 336 336 337 338 339 339 339 339 338 338 339 339 339 339 338 338 338 337 338 337 336 336 335 335 336 337 338 338 338 337 336 337 336 335 337 338 338 337 336 336 337 337 338 338
336 337 337 337 336 336 337 337 337 337 338 337 336 336 335 334 334 335 336 336 336 336 337 338 339 339 339 339 338 339 339 339 339 339 338 339 338 337 336 335 336 335 335 336 338 338 339 339 338 337 337 335 335 336 336 337 337 335 336 336 336 337 338
337 337 337 336 337 337 337 337 337 338 338 338 337 337 336 335 334 335 336 336 336 336 336 337 337 338 338 339 339 339 339 339 339 338 338 339 338 336 336 336 336 335 334 336 338 339 339 339 338 338 337 335 335 334 333 335 335 334 335 336 336 337 337
338 337 337 336 337 338 338 337 337 338 339 339 338 337 336 335 334 335 336 336 336 336 336 336 337 337 337 339 339 339 339 339 338 338 338 338 338 338 338 338 338 336 336 338 339 339 339 339 339 338 337 335 334 333 332 332 333 333 335 335 336 337 337
338 337 337 337 338 338 337 338 338 338 339 339 339 338 337 336 335 335 336 336 336 336 337 337 336 337 337 338 339 339 339 338 338 338 338 338 339 340 340 339 338 338 338 339 339 339 340 340 339 339 337 334 333 332 332 331 331 333 332 333 336 337 336
339 338 337 337 338 338 338 338 338 338 339 340 340 339 338 337 335 335 336 336 337 337 337 337 337 337 337 337 338 338 339 339 338 338 338 339 340 340 340 339 339 339 339 339 339 340 340 339 339 339 337 335 334 332 331 330 332 333 332 332 336 337 336
340 339 338 338 339 339 339 338 338 339 339 340 340 340 339 337 336 336 337 337 337 337 337 337 337 337 337 337 338 338 338 338 338 339 339 339 339 340 340 340 339 339 339 339 339 339 339 338 338 338 338 337 335 332 330 330 330 333 333 332 334 335 335
340 340 339 338 339 340 339 338 338 339 339 339 340 340 339 338 338 338 338 338 338 338 338 338 337 338 338 338 339 339 339 338 338 339 339 339 340 340 339 340 340 339 339 339 339 338 338 337 338 339 338 337 336 334 333 331 330 331 333 333 333 333 333
340 340 338 338 339 340 339 339 339 339 339 340 339 339 339 339 339 339 339 339 339 339 338 338 338 338 339 339 339 339 339 339 339 339 339 340 340 339 339 340 340 340 339 340 339 339 339 337 336 338 337 337 337 336 335 333 331 332 333 333 333 332 332
339 338 338 339 340 340 339 339 339 338 339 340 340 339 339 339 340 340 340 340 340 340 339 338 338 338 339 339 340 340 339 339 339 339 339 340 339 339 340 340 340 340 340 339 339 339 339 337 336 337 337 337 337 336 336 335 333 333 334 333 332 331 331
339 338 339 340 340 339 339 339 339 339 339 339 340 339 339 339 341 341 341 341 340 340 340 339 338 339 339 339 340 340 340 340 339 339 339 340 339 339 339 339 339 339 339 339 339 338 338 337 338 338 338 337 337 336 336 335 333 332 333 333 332 331 330
339 339 340 341 340 339 339 339 339 339 339 339 339 339 338 340 341 341 341 341 341 340 340 340 339 339 339 339 339 340 340 340 340 339 339 339 338 338 338 338 338 339 339 339 339 338 337 338 338 337 337 337 337 336 335 334 333 332 333 333 332 331 330
341 341 341 341 340 340 339 340 339 339 339 339 339 339 339 340 341 342 341 341 341 341 340 340 340 340 339 339 339 340 340 340 340 340 339 338 338 338 337 337 337 338 337 337 337 338 338 338 338 337 336 337 337 336 335 334 333 332 333 333 331 330 329
342 341 341 341 340 339 339 340 340 340 339 339 339 339 339 339 340 341 342 341 341 341 340 340 340 339 340 339 340 340 340 340 340 340 340 338 337 337 336 336 337 337 337 336 337 337 337 337 337 336 336 336 336 336 335 334 333 333 332 332 331 329 327
342 341 341 340 339 339 339 340 340 339 339 339 339 339 338 339 340 341 341 342 341 341 340 340 339 339 339 339 340 340 340 340 339 340 340 339 337 337 336 336 335 335 336 336 336 336 335 336 337 336 336 335 335 336 335 334 333 332 332 331 329 326 325
342 341 341 340 340 340 340 340 340 340 339 339 339 339 339 339 339 340 341 341 341 341 341 340 340 338 337 337 339 340 339 339 340 340 340 339 338 338 337 335 333 334 336 335 335 335 335 336 337 336 336 336 335 336 335 334 333 332 331 329 326 323 323
342 341 341 340 340 340 340 341 340 339 339 339 339 339 339 340 340 339 340 340 341 341 341 341 341 339 337 337 338 339 339 339 340 339 339 339 339 338 338 336 334 335 336 335 334 335 335 336 338 337 336 336 336 336 335 333 332 331 329 326 323 322 322
343 342 341 341 341 341 341 341 341 340 340 340 340 340 340 340 340 339 339 339 339 340 340 341 340 340 339 338 338 339 339 339 339 339 339 339 339 339 338 337 336 335 334 334 334 335 335 336 337 338 336 336 336 335 333 332 330 328 326 323 322 321 321
343 342 341 341 341 341 341 341 341 341 340 340 340 340 339 339 339 339 339 338 338 339 340 340 339 339 338 338 338 339 339 339 339 337 337 336 335 337 338 338 337 336 335 335 335 335 334 335 336 337 336 336 335 334 331 330 328 325 323 322 321 321 321
343 342 342 342 342 342 341 341 341 341 340 340 340 340 339 339 339 339 338 338 338 338 338 338 338 338 337 337 338 339 339 339 338 336 336 334 333 334 337 337 337 337 336 335 334 332 331 331 332 334 335 334 334 332 330 328 326 324 322 321 321 321 320
342 341 341 342 342 342 341 341 341 341 341 341 341 340 339 339 339 339 339 339 338 337 337 337 336 333 333 334 336 339 339 338 337 336 335 334 333 334 335 337 337 337 336 334 332 328 325 326 328 331 332 332 331 330 328 327 325 322 321 321 321 320 319
341 340 341 341 341 341 341 341 341 341 341 342 341 340 339 339 340 340 339 339 339 338 338 337 334 330 329 329 331 335 339 338 337 337 336 335 334 333 334 336 338 337 335 333 330 328 325 324 328 330 330 330 329 327 325 325 323 322 321 320 320 320 320
340 339 340 340 340 340 340 340 340 339 340 341 341 340 340 339 340 341 340 340 339 339 339 337 334 331 330 328 327 331 336 337 336 336 335 334 333 332 333 337 338 337 335 332 330 330 329 327 328 330 330 328 325 322 320 320 320 321 321 321 320 320 320
341 341 341 340 340 340 339 339 338 338 339 340 340 340 340 339 339 340 341 341 340 340 340 338 336 333 331 329 327 329 333 336 336 336 336 335 334 334 335 337 337 336 335 333 331 332 332 330 329 329 328 326 323 320 317 315 315 317 319 320 321 321 320
341 341 342 342 341 340 340 340 340 339 340 339 338 339 339 339 338 338 339 340 340 340 340 338 336 335 332 329 327 328 331 335 337 337 337 337 336 336 337 336 336 335 335 335 333 332 332 331 330 328 326 324 323 321 318 316 314 315 316 318 320 320 320
342 342 342 342 342 341 341 341 341 341 340 339 339 338 338 338 338 337 337 339 339 340 339 337 336 335 332 328 327 328 330 334 336 337 337 337 337 336 336 336 336 335 334 335 334 331 330 330 329 328 326 325 323 323 321 319 317 315 315 317 319 319 320
342 342 342 341 341 341 341 342 343 342 341 340 340 339 339 338 338 337 337 337 338 340 339 337 335 335 332 327 326 328 331 333 336 336 337 337 336 336 336 336 335 335 334 334 333 331 329 328 328 328 326 325 325 324 324 322 319 315 314 315 317 317 317
340 341 340 340 339 340 340 341 342 342 341 341 341 340 339 338 337 337 337 336 337 339 339 338 335 335 332 327 326 329 332 334 335 336 336 336 336 336 335 335 334 334 334 333 332 331 329 327 328 328 327 326 326 325 324 324 322 318 314 313 314 314 314
339 339 338 338 338 338 339 340 340 340 339 340 340 340 339 338 338 337 336 336 336 337 339 338 336 334 332 328 327 330 333 334 335 336 335 335 335 335 335 334 332 332 332 333 332 331 329 327 327 328 327 326 326 326 325 324 323 321 317 315 314 314 314
337 337 337 337 337 337 338 338 339 339 338 338 339 339 338 338 338 337 335 335 335 336 337 337 336 333 330 328 327 329 333 335 335 335 335 334 334 335 335 335 333 330 330 331 330 330 328 327 326 327 327 327 326 326 326 324 322 322 320 319 318 317 318
336 336 336 337 337 338 338 339 338 338 337 336 337 338 337 337 337 336 335 334 334 334 334 335 335 332 329 328 327 328 332 334 334 334 335 334 334 334 334 335 334 332 330 329 329 329 328 327 326 326 327 327 326 326 326 324 322 321 321 320 320 320 320
331 331 333 336 337 338 339 339 338 336 335 335 336 337 337 336 335 335 333 332 333 333 333 333 334 331 328 328 328 328 331 334 334 333 334 334 333 333 333 333 333 333 331 329 328 328 327 327 326 325 325 326 326 325 325 323 322 322 321 319 319 319 319
330 331 333 335 337 338 338 337 336 335 334 335 335 335 336 335 334 334 333 332 331 332 332 333 332 329 327 328 329 330 331 333 333 333 333 333 333 333 333 333 333 332 331 330 328 328 327 327 327 326 325 325 324 324 324 322 322 322 321 319 318 318 318
331 332 333 332 334 337 336 335 335 333 333 333 333 334 335 334 334 333 332 331 331 331 332 332 329 327 328 329 330 330 331 331 331 331 332 332 332 332 333 333 332 331 330 329 328 327 326 326 326 326 326 325 323 322 322 321 321 321 321 320 319 318 317
Wind_Speed
15 14 13 11 9 8 9 10 10 10 11 12 12 12 12 12 11 11 12 12 12 12 12 12 11 11 10 9 9 9 9 9 9 8 6 7 7 8 8 5 4 4 4 4 5 4 2 1 3 4 4 2 1 2 1 1 1 1 1 2 2 2 2
15 13 11 9 7 8 9 10 10 10 11 12 13 14 13 13 13 12 12 12 12 12 12 12 11 11 11 10 9 9 9 9 9 8 6 7 9 8 5 3 3 3 3 3 4 4 4 2 1 3 3 2 3 2 1 1 2 2 1 1 2 2 1
14 12 11 10 10 9 10 11 11 11 11 12 13 13 13 13 14 14 13 13 13 13 13 12 11 12 11 11 10 10 11 10 9 9 7 7 7 4 2 2 3 3 3 3 3 4 3 3 2 1 1 2 2 2 1 1 2 2 1 1 1 1 1
16 14 13 13 13 12 12 13 12 11 11 11 11 12 14 14 14 14 13 13 13 13 13 12 12 12 12 12 11 11 12 11 9 9 8 7 6 4 3 3 3 4 5 4 3 3 3 2 3 2 1 1 1 2 2 1 1 1 1 1 1 2 2
18 17 16 15 15 15 15 14 13 12 11 11 12 12 14 14 14 14 14 14 14 14 14 13 12 13 12 12 12 12 11 11 10 9 8 7 6 5 5 5 5 5 7 6 3 3 3 2 2 2 2 1 1 2 2 2 1 1 1 2 2 3 2
19 18 17 16 16 15 14 13 13 13 13 13 14 13 14 14 14 14 14 15 15 15 14 13 12 12 12 11 11 12 11 11 11 10 8 8 7 7 6 6 6 6 8 7 4 4 4 3 3 3 2 1 1 1 3 3 3 3 3 3 3 3 2
20 20 18 16 15 14 12 12 13 14 14 15 15 14 14 15 15 15 15 15 15 14 14 13 12 12 12 10 10 11 11 10 10 10 9 8 8 8 7 7 7 7 8 6 4 5 4 4 4 3 2 2 2 2 2 3 3 3 4 3 3 2 2
21 21 19 16 15 14 12 13 13 14 14 14 15 16 16 16 16 16 15 15 14 14 14 13 12 12 12 11 10 10 11 10 10 10 9 9 9 9 8 8 7 8 7 5 6 6 5 5 4 3 3 2 2 1 1 2 2 3 2 3 3 2 2
20 19 18 16 14 14 14 14 13 13 13 13 13 14 15 16 16 15 15 15 14 14 14 14 13 13 13 12 11 11 11 11 11 11 10 10 10 10 10 9 9 8 8 8 8 7 7 6 5 4 4 3 1 1 1 1 1 2 2 1 2 2 2
20 19 17 16 15 15 15 14 13 12 13 13 12 13 15 15 15 15 15 15 14 14 14 13 13 13 13 13 13 13 13 12 11 11 11 11 11 11 11 11 10 10 10 10 10 9 8 7 6 5 4 3 2 2 1 1 1 2 2 1 1 1 2
20 19 18 17 16 15 15 14 13 13 14 14 13 14 14 15 15 15 15 14 15 15 14 14 13 13 13 13 12 12 13 12 12 12 12 12 12 11 11 11 11 10 10 10 10 9 8 6 5 4 4 3 3 3 2 1 1 1 1 0 1 1 2
20 19 19 18 17 16 16 15 14 14 15 15 15 14 14 15 16 15 15 14 14 15 15 15 15 14 14 13 12 12 12 13 13 14 15 14 13 12 12 12 11 10 9 9 8 8 7 6 5 5 4 4 4 3 3 3 2 1 0 1 1 2 3
20 20 19 18 18 17 17 15 15 15 16 15 16 16 16 15 15 15 15 14 14 14 15 15 16 16 15 14 13 13 13 14 15 16 16 15 14 14 14 13 12 11 9 9 9 8 7 7 7 6 6 5 5 4 3 4 4 1 0 2 3 2 3
21 20 19 18 18 17 16 16 16 16 17 17 16 16 17 16 16 16 16 15 15 15 15 15 15 15 15 14 14 14 14 15 17 16 15 15 16 16 15 14 13 12 11 10 10 9 8 8 8 7 7 7 6 5 5 5 5 4 2 2 3 3 3
21 20 19 19 19 18 17 17 17 17 19 19 18 17 18 17 16 16 16 16 16 16 15 15 15 15 15 15 16 15 15 16 16 16 15 16 16 16 15 15 14 13 13 12 10 9 9 9 9 9 9 9 8 7 6 6 6 6 5 3 3 4 3
21 20 20 19 19 19 18 17 18 19 19 19 18 18 18 17 17 17 16 16 16 16 16 15 15 15 15 16 17 17 17 17 17 16 16 16 16 16 15 15 15 14 14 13 12 11 11 11 11 11 10 9 8 7 7 7 6 6 6 4 4 4 2
20 20 20 20 19 19 19 19 19 20 20 19 19 18 18 18 17 17 17 17 16 16 16 16 16 16 16 16 17 17 17 17 17 17 17 17 17 16 16 15 15 15 15 14 14 13 13 13 12 11 11 10 9 8 8 7 7 6 6 5 4 3 3
20 21 20 19 20 20 20 20 20 20 20 20 19 19 18 18 18 18 18 17 17 17 16 16 17 17 17 16 16 16 17 17 18 18 18 18 18 17 17 16 15 16 16 16 15 14 13 13 13 11 11 10 9 9 8 8 7 7 6 6 5 3 3
21 21 20 20 21 21 21 21 20 20 21 20 19 19 18 18 18 18 18 17 17 17 17 17 17 17 17 16 16 16 16 17 17 18 18 17 17 17 17 17 16 16 16 16 14 13 13 13 13 12 11 11 10 9 8 8 7 7 6 6 5 4 4
21 21 21 21 21 20 21 22 21 21 20 20 19 18 18 18 18 18 17 17 17 17 17 17 17 17 17 16 16 16 16 16 16 16 16 16 16 16 17 16 15 15 15 15 15 13 13 13 13 13 12 12 11 10 9 8 7 7 6 6 5 5 4
21 21 21 21 21 21 21 22 21 21 20 20 19 19 18 18 18 17 17 17 17 16 16 16 16 16 16 16 16 15 15 16 15 14 15 15 15 15 15 15 15 14 14 15 14 13 13 13 13 13 13 12 11 10 9 8 8 7 7 6 6 5 4
19 20 20 20 21 21 20 20 21 21 21 20 19 19 18 18 17 17 17 17 16 15 15 15 15 16 16 15 16 15 15 15 15 15 15 14 15 15 14 14 14 14 14 14 15 15 14 13 13 12 12 12 11 11 10 9 8 8 7 7 6 5 4
18 20 20 20 20 20 19 19 19 20 20 19 18 18 18 18 17 17 17 17 16 15 15 14 16 18 18 16 15 15 15 15 16 18 16 14 14 15 13 13 13 14 16 17 17 17 16 16 15 12 11 12 12 12 11 10 9 8 8 7 7 5 4
18 19 20 19 19 18 18 18 18 18 18 17 17 17 17 17 17 17 16 16 16 16 15 15 18 20 20 19 17 15 15 16 16 17 15 15 15 15 13 12 12 14 17 18 17 17 17 16 16 15 14 14 14 13 11 10 9 9 8 7 6 5 5
18 19 19 19 18 18 17 17 16 17 17 17 17 17 17 17 16 17 16 16 16 16 15 17 19 18 18 19 19 16 14 15 16 16 16 16 16 14 13 13 12 12 14 17 16 15 16 17 17 17 16 16 16 14 13 12 10 8 8 8 6 5 5
19 19 19 18 18 17 17 16 16 17 16 16 16 16 16 16 16 16 16 16 17 16 16 18 18 16 16 17 19 18 15 15 16 17 16 17 16 15 15 13 13 12 13 16 16 14 14 17 19 19 17 17 16 15 15 15 13 10 8 7 7 5 4
19 19 18 18 17 17 17 17 17 17 16 16 17 17 17 16 16 16 15 15 16 15 16 18 17 16 16 16 18 20 17 14 14 15 15 16 15 15 14 13 13 13 12 14 15 14 13 16 18 20 19 18 16 16 17 17 16 15 11 8 7 5 4
19 19 19 18 18 17 17 17 17 17 16 17 18 19 18 18 17 16 15 15 15 15 16 18 17 16 17 16 17 20 18 14 13 14 14 14 13 13 13 13 13 13 12 13 15 16 15 15 17 19 18 17 15 15 17 18 17 16 14 10 8 6 4
19 18 18 18 18 18 18 17 17 17 17 17 18 18 18 18 18 18 17 16 16 15 16 19 18 16 16 16 17 19 19 15 13 14 13 13 13 13 13 13 13 13 13 13 16 18 19 17 17 18 18 17 16 15 16 17 18 16 14 13 11 9 8
19 18 18 18 18 17 17 17 17 17 17 18 18 19 19 18 18 18 17 17 16 15 16 19 19 17 17 18 18 19 18 16 15 15 14 13 14 13 14 14 14 14 14 14 17 19 20 20 18 18 18 17 17 16 15 16 18 18 16 16 15 13 12
20 19 19 18 18 17 16 16 17 17 17 17 18 19 18 17 17 17 18 18 16 15 15 18 19 18 19 19 20 19 18 16 16 15 14 14 13 13 14 16 17 15 13 15 18 19 21 22 20 18 18 18 17 17 15 15 16 17 18 18 17 15 14
20 20 20 19 18 18 17 17 16 16 17 16 16 16 17 17 17 17 17 18 18 16 15 16 18 19 19 20 21 19 17 16 17 16 15 14 14 14 14 16 20 20 16 15 18 18 20 23 23 20 19 18 18 17 16 15 14 15 16 18 18 17 16
22 21 20 20 19 18 17 17 16 16 16 16 15 15 16 16 16 16 16 17 18 17 15 15 17 19 20 21 21 20 17 16 17 16 15 15 15 14 14 14 18 21 20 19 19 19 19 22 24 21 19 18 18 16 15 15 15 14 14 15 16 15 15
24 23 22 21 20 18 17 16 17 17 16 16 15 15 15 15 15 16 16 16 16 16 16 16 18 20 21 21 22 22 19 16 16 15 14 15 15 14 15 14 14 17 20 21 21 21 19 20 22 22 20 18 17 16 14 14 15 15 14 13 13 14 13
26 24 23 22 21 19 17 17 17 17 16 15 16 16 16 15 15 16 16 16 15 15 16 18 19 20 21 20 21 23 20 16 15 15 13 13 13 13 13 12 12 13 15 17 18 20 20 19 20 22 22 20 17 17 17 15 14 14 14 14 14 15 14
24 22 22 23 21 18 17 17 16 16 16 15 16 17 18 18 18 18 18 16 15 14 16 19 20 21 21 21 21 22 20 17 17 15 12 10 11 10 9 9 9 11 13 13 15 16 17 19 21 23 24 23 22 21 19 16 15 16 16 16 17 17 16
17 17 20 22 19 16 15 16 15 16 17 17 17 18 19 19 19 19 18 16 15 15 15 17 19 21 20 20 20 19 19 19 18 15 12 10 9 8 7 7 8 10 11 11 13 13 14 17 20 22 23 23 25 26 22 16 15 17 17 17 18 18 16
Wind_Direction
190 195 194 192 192 194 199 201 203 207 209 212 214 213 211 209 211 216 216 215 214 213 210 210 207 202 203 202 200 201 208 215 220 223 214 197 210 232 229 227 259 274 287 297 307 308 297 199 235 218 171 152 184 185 198 300 271 267 268 258 257 232 217
195 198 195 195 196 195 203 204 202 208 211 211 212 212 213 211 212 214 215 214 215 214 213 214 211 207 206 202 197 199 205 212 219 226 219 206 216 223 208 207 242 259 279 280 282 292 300 303 216 180 165 161 162 161 182 297 284 271 241 245 276 263 239
189 191 191 196 198 196 204 207 202 205 209 209 210 210 212 214 214 213 213 214 214 214 214 214 210 207 208 205 199 203 210 212 219 228 225 215 220 220 169 191 231 245 260 260 255 261 274 286 287 256 188 187 175 173 191 265 265 251 199 172 266 283 18
188 188 190 195 198 199 205 208 205 205 207 208 207 207 210 212 214 216 216 215 215 216 214 211 210 206 205 205 202 204 211 214 218 227 231 225 218 209 192 203 223 246 259 259 255 255 254 261 280 287 279 233 189 177 165 212 253 230 160 130 104 93 82
194 194 195 197 198 202 206 207 207 206 207 208 206 207 209 208 210 213 216 216 216 217 216 212 211 209 205 203 202 203 206 210 216 221 225 223 214 210 213 220 225 239 253 255 243 239 253 267 279 290 303 310 220 171 148 164 198 161 133 121 117 123 129
199 199 200 202 203 205 207 208 209 207 206 208 208 208 210 207 207 210 212 213 214 216 217 215 214 211 207 203 202 204 205 208 212 215 217 216 211 215 216 217 220 227 240 248 241 236 244 249 253 264 272 259 247 209 166 169 171 155 153 149 144 147 139
204 205 205 208 209 208 209 211 213 212 210 209 207 206 208 206 205 207 210 212 214 215 216 216 215 211 207 204 201 204 207 209 209 209 212 211 208 210 208 204 208 220 234 237 232 238 237 234 244 258 262 244 243 258 203 176 161 155 162 152 138 130 103
207 209 211 213 214 212 211 211 213 214 214 211 207 205 204 203 203 205 207 209 210 211 212 211 210 208 205 201 200 203 204 206 205 204 207 207 205 204 202 202 206 214 224 222 220 229 226 225 236 247 264 258 226 237 230 190 151 146 159 141 125 99 52
208 210 213 215 216 215 213 213 214 215 214 213 210 207 203 203 205 206 207 207 207 208 208 206 203 202 202 199 197 200 202 203 201 201 202 202 203 201 197 200 206 209 212 212 215 219 216 219 225 231 246 259 251 212 191 198 149 138 142 140 127 98 35
208 210 213 214 216 215 214 214 214 213 213 212 211 208 203 200 202 205 207 206 207 208 205 202 201 200 199 197 196 196 197 198 198 198 200 200 200 200 198 201 205 207 208 210 212 213 214 216 220 229 240 247 267 269 224 211 177 152 143 118 107 114 25
207 209 213 215 216 215 214 214 212 211 213 213 211 209 204 200 199 200 203 203 203 206 203 197 198 198 197 197 197 197 195 194 194 194 197 198 198 199 202 206 209 212 213 212 213 213 214 218 223 236 247 248 255 269 282 281 227 181 171 128 46 39 359
207 210 213 215 214 214 214 213 211 211 213 212 210 209 206 202 199 198 201 202 200 202 200 196 196 195 196 197 197 197 196 194 194 196 196 195 195 200 204 206 211 216 217 215 216 216 213 216 225 232 235 239 244 244 265 280 263 145 73 296 326 354 347
208 211 212 211 211 213 214 213 212 212 214 212 209 209 209 205 201 199 201 201 199 200 198 197 197 195 195 198 198 199 199 198 199 200 197 193 194 199 201 201 206 209 210 212 215 215 212 213 219 224 225 226 231 229 238 268 274 271 232 265 279 298 320
206 209 209 208 209 213 214 213 213 213 215 213 209 208 209 207 202 201 202 201 200 200 198 197 198 197 196 198 200 202 203 203 206 206 200 195 198 202 201 201 204 204 204 207 211 212 211 211 213 219 223 222 221 218 220 240 261 268 248 224 249 267 284
204 205 205 206 209 212 213 212 212 214 215 214 210 208 208 207 204 202 202 202 201 200 200 199 199 200 200 200 202 205 206 207 211 211 206 201 202 206 206 206 206 204 202 205 209 212 210 207 209 215 219 221 218 210 212 229 248 262 260 242 252 258 256
203 203 204 207 210 212 213 211 212 214 213 211 210 209 209 208 205 204 203 203 202 201 200 200 200 202 204 205 205 207 207 209 212 213 212 208 207 209 209 210 210 205 202 202 205 210 208 205 208 214 216 218 219 213 213 227 244 262 271 265 265 268 271
201 203 206 210 212 213 212 211 212 213 212 210 207 208 210 210 207 206 206 205 204 202 199 198 200 203 206 208 210 210 209 210 213 214 214 213 213 213 211 212 212 207 202 203 204 207 208 207 208 215 216 214 217 218 215 222 234 250 267 270 272 283 298
199 203 206 209 212 212 211 211 211 210 210 209 207 207 208 210 209 207 207 207 206 205 202 200 201 202 205 210 213 215 214 213 215 216 217 217 218 217 215 213 215 212 207 206 207 207 209 211 211 214 217 215 216 217 214 219 228 235 251 267 275 277 279
197 200 202 206 209 210 211 211 209 207 208 207 207 207 207 208 210 209 209 208 208 208 206 205 205 205 208 212 213 215 215 215 216 218 220 222 222 220 217 215 216 214 210 210 212 210 210 212 213 214 215 216 216 214 211 217 225 231 243 258 269 264 253
195 198 202 206 207 207 209 210 207 204 207 207 206 206 207 208 209 210 211 210 209 209 207 207 208 209 211 214 213 212 213 213 216 219 224 227 225 221 219 218 217 213 212 215 216 214 214 212 212 213 213 215 215 212 212 216 220 229 239 246 251 250 245
195 198 202 205 205 207 209 209 207 204 206 208 208 207 207 207 208 211 213 212 211 209 208 207 209 210 211 211 209 210 212 212 214 219 226 230 229 225 221 220 220 216 216 219 220 220 219 215 212 213 213 213 211 209 211 214 218 226 230 234 239 238 237
195 198 200 202 205 207 208 208 208 207 208 209 209 209 209 208 209 210 211 212 211 209 209 210 210 209 207 208 208 207 208 209 210 214 218 224 232 232 224 222 224 221 220 222 222 219 217 215 214 213 213 210 205 205 210 215 222 227 224 225 228 225 228
194 196 198 201 204 206 207 207 208 210 210 209 208 209 210 209 208 208 209 210 209 209 210 212 211 207 203 204 204 203 204 204 207 213 212 214 230 234 225 223 227 224 223 226 226 222 219 221 221 217 214 207 200 202 211 217 224 226 223 225 224 221 231
194 199 200 200 203 204 205 206 208 209 210 209 208 208 208 209 208 207 208 207 206 206 207 211 214 210 206 206 203 200 202 203 204 210 209 210 223 230 227 224 225 226 227 229 229 226 224 225 224 219 216 210 203 204 211 220 225 223 224 229 223 223 233
196 202 202 200 202 202 202 204 206 208 208 208 208 207 208 209 208 208 209 206 205 205 207 214 217 215 212 214 210 203 202 203 202 203 207 210 217 225 227 223 218 221 227 227 224 224 225 223 217 215 220 220 214 213 214 218 223 224 225 229 224 224 229
194 199 202 202 202 201 201 203 207 208 208 208 208 208 209 210 209 209 210 209 207 206 210 218 220 215 214 216 213 208 206 207 205 204 207 211 215 221 223 219 213 212 221 224 221 219 222 219 212 211 219 221 220 221 218 216 218 217 214 222 228 227 227
189 192 195 198 199 200 202 203 206 209 207 207 208 208 210 212 211 211 211 213 213 209 213 222 222 216 215 216 211 208 210 212 209 207 208 209 212 217 217 214 213 211 213 220 219 214 213 213 209 209 213 215 217 219 218 217 218 214 207 210 225 225 216
188 189 189 190 191 195 198 199 202 204 204 206 209 210 211 211 211 213 214 215 216 214 217 224 223 217 217 216 210 207 210 215 214 211 212 212 214 218 217 216 219 217 214 214 214 212 209 207 206 205 206 211 213 214 216 217 219 215 209 213 223 222 217
186 188 187 186 187 190 193 195 197 198 200 205 208 209 211 211 211 213 214 214 217 218 220 223 222 218 216 212 206 203 206 214 218 217 218 218 219 222 221 219 220 221 219 215 216 218 214 208 207 206 205 208 212 213 214 218 219 215 209 211 215 215 216
181 184 185 187 188 191 193 195 195 195 197 200 202 206 210 211 212 213 213 214 216 216 219 221 219 216 213 208 201 197 201 209 216 219 220 219 220 222 223 221 219 221 223 217 220 225 220 212 210 211 208 208 212 215 215 217 222 222 217 214 217 219 222
177 180 184 188 190 192 195 197 196 196 197 199 200 203 205 207 210 212 212 214 215 214 217 220 217 211 209 207 200 195 197 204 210 216 219 220 223 224 224 224 221 221 223 220 221 226 222 214 211 214 214 212 215 220 218 214 216 220 221 222 224 227 230
177 179 184 187 190 193 197 199 198 196 198 200 201 201 200 202 207 210 211 213 214 214 216 219 217 209 206 206 201 196 198 204 206 212 216 218 224 226 225 228 229 225 223 222 224 227 225 217 214 218 220 219 222 226 222 218 217 217 220 222 225 229 233
175 177 181 184 187 193 197 198 198 196 197 199 201 200 198 199 204 207 209 211 213 213 213 216 216 210 206 206 202 197 201 206 204 208 214 217 223 226 222 225 232 231 227 224 224 229 230 223 218 220 223 224 228 229 225 226 228 227 224 222 222 225 228
172 175 177 179 182 187 193 196 196 195 196 198 199 197 195 195 199 204 208 211 212 211 209 213 217 212 207 207 204 199 202 208 208 207 212 218 223 226 224 223 229 234 233 231 230 232 236 232 226 224 226 229 233 232 229 231 231 227 229 231 226 223 224
173 175 176 176 176 179 185 191 194 194 196 198 198 196 194 194 197 203 207 211 213 210 206 210 215 212 206 206 205 202 200 206 212 210 212 220 223 227 230 228 229 233 235 235 236 236 239 240 235 231 229 230 233 233 232 236 235 227 227 233 232 231 230
174 173 175 176 173 172 178 184 188 193 198 199 197 196 196 195 196 199 204 207 209 207 204 205 208 207 203 202 203 202 198 202 210 212 214 222 226 230 237 237 236 240 242 244 247 246 244 244 242 239 235 231 232 235 235 237 241 236 232 234 237 238 236
175 170 175 179 173 168 173 178 184 196 202 201 197 196 196 195 194 197 199 199 201 202 200 200 202 201 198 198 200 200 199 204 211 213 213 219 225 230 236 236 232 236 244 252 256 255 253 248 245 244 243 237 235 237 236 235 239 239 237 237 237 238 237